sat.trackr.live / text

‹ back to catalog

ION SCV-002

NORAD 47504 · 2021-006CV

PAYLOAD ACTIVE UNKNOWN

§ Identity

Operator
Country
IT
Launch date
2021-01-24
Launch site
AFETR
Launch vehicle
Mass (kg)
RCS (m²)

External: N2YO · Heavens-Above · Gunter

§ Orbital elements

Epoch: 2026-05-24T23:06:50.612256Z

Period
93.30 min
Inclination
97.1127°
Eccentricity
0.0010736
Mean motion
15.43388479 rev/d
Perigee alt
428.8 km
Apogee alt
443.4 km
Semi-major
6,814.3 km
B*
2.5671e-4
RAAN
147.3969°
Arg perigee
189.7487°
Mean anomaly
170.3554°
Rev number
29,644

§ Raw data

ION SCV-0021 47504U 21006CV  26144.96308579  .00011404  00000+0  25671-3 0  99962 47504  97.1127 147.3969 0010736 189.7487 170.3554 15.43388479296441

JSON: /api/v1/satellites/47504 · /tle

For live sub-satellite position, see the globe view (requires WebGL).

§ Visibility from observer

Set your observer location to see the next 7 days of passes ≥ 10°. The values pass through the URL so the page stays shareable.

No JS? Fill the form by hand. The geolocation button needs JavaScript.